User: anonymous   Login
Location: Unspecified
(0.0000°N, 0.0000°E)
Time: 03:00:34
(UTC+00:00)
Language:

PAYLOAD B - Orbit

View from above orbital plane
View from above orbital plane
View from above satellite
View from above satellite

Ground track
Ground track

The orbit data is extracted from the following two-line orbital elements,

1 27431U 02024B   17324.83133936 -.00000064  00000-0 -10556-4 0  9991
2 27431  99.0504 297.5456 0015738  13.6729 346.4864 14.09638317798478
Epoch (UTC): 20 November 2017 19:57:07
Eccentricity: 0.0015738
inclination: 99.0504°
perigee height: 849 km
apogee height: 872 km
right ascension of ascending node: 297.5456°
argument of perigee: 13.6729°
revolutions per day: 14.09638317
mean anomaly at epoch: 346.4864°
orbit number at epoch: 79847

The dashed part of the orbit path shows where the satellite is in the earth's shadow,  

DLR